STARLINK-6329, 56525

Orbit data source: Space-Track

STARLINK-6329, 56525 is a payload satellite owned by SpaceX/Seattle (US) in LEO that was launched on Sun, 14 May 2023 UTC via an FALCON 9 launch vehicle from the Air Force Eastern Test Range (AFETR). Payload-class satellites include a variety of spacecraft equipped with specific instruments for various scientific and technological missions. These include communications satellites like Starlink; space stations such as the ISS; scientific satellites like the Hubble; Earth observation satellites from companies like Planet Labs, Umbra, and HawkEye 360; GPS; miniature CubeSats for education and research; and military/defense satellites.

Loading next visibility...
Identifier
56525, 2023-065Y
Orbit
LEO
Country
Flag of USUS
Related business
Manufacturer
SpaceX/Seattle
Mission
Operational Commercial Communications
Bus & Motor
STARLINK, Unknown motor
Mass
305 kg wet, ~290 kg dry
Launch date (UTC)
2023-05-14 (3 years ago)
Launch vehicle
FALCON 9
Launch site
Air Force Eastern Test Range (AFETR)
Object type
Payload
Rocket body
Debris
Shape & HBR
Box + 1 Pan, 10.1 m
Radar Cross Section
11.087 m², Large (>1 m²)

Expand to show TLE details & history
Last TLE update: 3 days ago

TLE from 3 days ago
0 STARLINK-6329
1 56525U 23065Y   26170.24411774  .00000875  00000-0  42282-4 0  9997
2 56525  43.0006   9.8052 0001278 276.4164  83.6542 15.26743529172002
Epoch: 2026-06-19T05:51Z
TLE epoch observation values (Epoch: 2026-06-19T05:51:31.772Z)
Latitude
-0.00001°
Longitude
14.44692°
Altitude
485.234 km
Speed
7.625 km/s
True Right ascension
00h 39m 13s
True Declination
0° 00' 00"
Sunlit
Object was in daylight at epoch
Visualization orbit readout
Latitude
Unknown
Longitude
Unknown
Altitude
Unknown
Speed
Unknown
Apparent Right ascension
Unknown
Apparent Declination
Unknown
Sunlit
N/A
Visualization observer readout
Local Sidereal Time
21:25:16
Azimuth
Unknown
Elevation
Unknown
Doppler factor
Unknown
Orbital elements
Apogee altitude
488.377 km
Perigee altitude
486.622 km
Semi-major axis
6,865.636 km
Eccentricity
0.00013
Inclination
43.0006°
RAAN
9.8052°
Arg. of periapsis
276.4164°
True anomaly
83.66876°
Mean anomaly
83.6542°
Eccentric anomaly
83.66148°
Mean motion
3.81524 °/min
Orbital period
94.36 mins
BSTAR
0.000042282
Loading maneuver chart data...
Computing Atmospheric mass density...
Loading historical data...
Loading historical data...
Loading historical data...
Loading historical data...
Loading historical data...
Loading historical data...
Loading historical data...

Documentation

Showing up to 5 results
|